Wind_Speed
18 18 18 17 16 17 17 17 16 15 16 15 14 13 12 11 10 9 8 7 5 4 3 2 3 4 4 4 5 5 5 5 5 6 5 5 5 5 5 5 5 5 6 6 6 7 7 8 9
18 18 18 17 18 18 17 17 16 16 16 15 14 13 12 11 10 10 9 8 6 5 3 3 4 4 4 5 6 6 5 5 6 6 6 5 5 4 5 5 5 6 6 6 6 6 7 8 9
17 18 17 18 19 19 18 18 16 16 15 15 14 14 12 12 11 11 10 9 8 6 5 4 4 5 5 6 6 6 6 6 6 5 5 5 5 5 5 5 5 5 6 6 6 7 8 9 9
16 17 17 18 19 19 18 17 17 16 15 15 15 14 13 12 12 11 9 9 10 8 7 6 6 5 6 7 6 6 6 6 5 5 5 4 5 5 5 5 5 5 5 6 6 7 8 9 8
15 16 17 19 18 18 17 17 17 17 15 15 15 14 13 13 12 11 10 10 10 9 8 7 7 6 6 7 7 6 6 6 6 6 5 5 5 5 5 6 5 5 5 6 7 8 8 8 7
14 16 18 19 18 18 18 19 18 17 15 16 15 15 14 13 12 12 11 11 9 9 8 8 7 6 6 6 6 7 6 6 6 6 6 6 5 5 5 6 6 5 5 7 7 7 8 8 7
13 16 17 18 19 18 18 18 18 17 16 16 16 15 15 14 13 12 11 10 10 9 9 8 8 7 7 6 6 6 7 6 6 6 6 6 6 5 5 6 5 5 5 6 6 6 6 6 6
14 16 17 17 17 18 18 18 18 17 17 16 16 16 15 15 14 13 11 11 10 10 10 9 9 9 9 8 7 6 7 7 6 6 6 7 6 6 5 5 6 5 5 6 5 6 6 6 5
14 15 16 17 17 18 18 17 17 17 17 17 17 17 16 15 14 13 12 12 11 11 10 10 10 9 9 8 7 6 6 7 6 7 7 6 6 5 5 5 5 5 5 5 5 5 5 4 4
13 14 15 17 17 17 17 16 17 18 17 17 17 17 17 16 15 14 14 13 13 12 12 12 11 10 9 9 8 7 6 6 6 7 7 6 5 5 5 5 5 5 5 4 4 4 5 4 4
11 12 13 15 16 15 16 16 17 18 17 17 17 17 17 16 16 15 14 14 13 12 12 12 12 10 10 9 9 7 7 6 6 6 5 6 5 5 4 4 4 4 4 4 4 4 4 4 4
9 11 12 13 14 15 15 17 17 16 17 17 17 17 17 16 16 16 15 14 15 13 12 11 12 11 10 10 9 8 7 6 5 6 5 5 5 5 4 4 4 4 4 3 3 3 3 3 3
8 9 10 12 13 14 15 16 16 16 16 16 16 16 16 16 17 17 16 15 15 14 13 11 11 11 10 9 9 8 7 7 6 5 5 5 4 4 4 4 4 4 4 3 3 3 3 2 2
6 7 8 10 12 13 14 15 15 15 16 16 16 16 16 16 16 16 16 16 15 13 13 12 11 11 10 10 10 9 8 7 6 5 5 5 5 4 4 4 3 3 4 4 3 3 3 2 1
6 5 6 8 11 13 14 15 14 14 15 15 15 15 15 15 15 15 16 16 16 14 13 12 12 11 11 11 10 9 8 7 6 6 6 5 5 4 4 3 3 3 3 3 2 2 2 1 1
4 4 4 6 9 11 12 13 14 14 14 13 14 15 15 15 15 15 15 16 16 15 14 13 13 12 11 11 10 9 9 8 7 6 5 5 5 4 3 3 2 2 2 3 2 2 1 1 1
3 3 3 4 6 8 9 11 12 13 12 12 14 14 14 14 14 14 14 14 15 15 14 13 13 12 11 11 10 9 9 9 7 7 6 6 5 4 4 3 3 2 2 1 1 1 0 1 2
2 1 1 2 4 5 7 9 11 12 11 10 13 13 13 13 12 13 13 13 14 14 14 14 13 12 11 10 11 10 9 9 9 8 7 7 6 5 4 3 3 2 1 1 1 1 1 1 2
2 0 1 2 3 4 5 7 8 9 10 10 11 12 12 12 11 11 12 12 13 13 13 14 14 13 11 10 10 10 10 9 9 9 8 7 6 5 4 4 3 3 3 2 1 2 1 2 3
5 4 3 3 5 5 5 6 6 7 8 8 9 9 11 10 10 10 10 11 12 12 13 13 13 13 12 10 10 10 9 9 8 8 8 8 7 6 5 5 5 5 4 4 2 2 2 3 2
9 6 5 4 4 5 5 6 6 6 7 7 8 8 9 9 10 10 10 10 11 11 12 12 12 12 12 11 10 10 9 8 8 8 7 7 7 8 7 6 5 5 4 4 3 3 3 2 3
12 9 8 7 7 7 7 7 5 5 6 5 6 6 7 8 8 9 9 9 10 9 10 11 11 11 11 11 10 9 9 8 8 7 7 7 7 6 6 6 6 5 5 5 4 4 4 3 4
13 12 13 12 10 9 8 8 7 6 4 4 4 5 5 6 7 7 8 8 9 9 9 10 10 11 11 11 10 9 8 7 7 6 6 6 5 5 5 4 4 4 5 5 4 4 5 5 5
15 15 16 16 14 12 8 8 7 6 5 5 5 5 5 6 6 6 7 7 7 7 8 8 9 10 10 10 9 9 8 7 6 6 5 5 5 5 4 5 5 6 6 6 5 5 5 5 6
18 18 19 18 16 13 11 12 8 6 6 5 5 4 5 5 5 5 5 6 6 6 6 7 8 9 9 9 9 9 8 7 7 6 5 4 4 5 5 5 5 6 6 6 6 6 6 6 7
19 20 21 18 16 14 13 14 10 7 6 6 7 6 5 4 4 4 4 5 5 5 5 6 6 7 8 8 8 8 7 7 7 7 6 5 5 5 5 6 6 6 7 8 7 7 7 7 8
21 21 21 20 17 16 15 14 12 11 9 8 8 7 6 5 4 4 4 5 5 5 5 5 5 6 7 8 7 7 7 7 7 6 6 6 6 5 5 6 6 7 7 8 7 7 8 8 8
23 23 23 22 21 19 17 16 14 13 12 10 9 8 7 6 6 5 5 5 5 5 5 5 5 6 7 7 7 7 7 7 7 7 7 7 7 6 6 6 6 7 8 9 9 8 9 9 9
24 25 25 24 23 21 19 17 16 15 12 11 11 10 10 9 9 8 7 7 6 6 6 6 6 6 7 7 8 8 7 8 7 7 7 7 7 7 7 7 7 8 8 9 9 9 9 9 10
27 27 27 27 25 23 22 20 17 15 14 13 14 13 12 11 11 10 10 9 8 8 7 7 7 7 7 8 8 8 8 8 8 8 8 8 8 8 8 8 9 9 9 9 10 10 10 10 11
Wind_Direction
64 58 51 48 44 42 39 39 39 40 39 38 38 37 36 35 37 42 44 45 42 49 60 101 121 126 127 124 126 130 139 145 146 148 146 144 144 147 149 156 158 159 163 164 164 166 167 166 165
61 56 50 47 43 40 37 37 39 41 39 38 38 38 36 36 40 44 46 46 44 54 66 101 124 126 126 127 126 129 136 139 143 147 146 141 142 145 145 151 156 158 157 163 161 165 163 165 166
57 51 46 43 42 40 37 37 38 40 37 38 37 36 36 40 43 46 50 51 52 57 72 95 116 125 128 129 127 130 129 135 139 142 143 140 143 148 149 146 152 158 147 154 156 159 162 163 163
52 47 42 41 39 41 39 39 40 41 38 39 38 37 40 45 46 47 50 53 54 59 73 86 101 112 122 121 125 132 130 130 137 140 137 137 138 143 146 143 142 151 148 135 132 139 155 160 162
50 48 44 42 40 39 39 40 39 38 39 42 42 39 41 47 51 52 51 54 58 65 72 83 92 103 113 117 123 127 128 129 133 138 138 138 134 138 142 143 144 140 140 140 136 140 151 158 160
50 49 44 41 42 44 43 42 42 41 40 43 42 39 41 47 54 52 48 52 61 68 72 81 93 99 111 115 119 123 129 132 127 132 133 137 134 134 142 146 146 144 142 146 143 148 147 150 159
50 48 43 40 40 44 45 42 42 43 41 43 44 41 43 49 54 51 51 55 64 74 78 83 84 91 98 102 115 121 120 123 127 129 133 131 130 131 135 143 143 144 144 143 138 143 148 154 159
53 46 43 42 39 44 46 42 41 42 42 42 44 44 43 47 53 53 57 60 66 76 78 80 79 86 88 92 101 112 117 119 121 121 127 128 126 127 128 139 145 143 147 146 143 152 149 153 164
52 44 43 43 39 41 42 42 42 44 42 41 42 43 45 48 52 56 56 57 64 76 81 80 81 83 84 88 87 94 113 118 116 115 123 128 126 125 126 131 148 152 152 151 152 154 155 161 167
51 44 43 43 40 38 40 42 41 42 42 43 44 45 49 51 53 56 59 61 65 71 76 78 79 83 84 81 84 88 106 116 115 116 118 121 126 127 128 128 143 158 154 151 155 158 169 175 178
55 48 45 39 39 38 41 43 43 42 43 45 46 47 50 53 54 56 60 62 66 70 75 73 70 76 80 79 79 80 94 114 116 116 120 118 119 122 125 128 139 149 155 166 172 172 175 185 183
58 49 45 40 41 39 44 43 43 45 45 45 46 48 51 54 56 58 60 64 66 68 72 73 72 71 75 76 80 78 85 97 114 111 113 119 119 117 120 125 124 142 153 164 180 172 173 181 184
67 55 45 42 40 41 41 42 43 43 44 46 46 48 50 53 53 54 55 57 60 64 65 69 64 63 68 71 71 72 83 87 97 106 111 116 115 114 119 118 120 130 150 153 158 162 177 180 193
74 62 43 41 42 40 35 39 42 43 44 45 46 46 45 48 51 50 51 53 55 59 61 60 57 59 66 67 68 72 82 84 84 93 108 110 105 104 118 127 112 120 138 142 141 151 161 171 183
74 57 41 33 38 34 31 29 37 41 42 42 43 43 43 46 49 51 53 54 55 56 59 59 54 57 64 63 63 63 74 82 85 89 94 101 101 101 114 122 123 122 126 131 137 167 178 201 260
76 49 35 23 28 26 23 24 32 35 37 37 42 45 44 45 47 49 52 52 52 53 55 58 57 56 64 66 64 60 62 73 81 80 84 87 91 96 109 123 135 127 117 120 145 169 170 237 292
98 43 25 30 24 17 16 15 23 29 33 34 38 43 44 45 45 46 49 50 50 51 52 53 55 56 62 62 63 64 63 67 69 74 80 80 86 89 95 106 119 120 125 130 135 94 222 295 307
125 84 348 1 15 7 359 7 16 24 28 31 34 39 40 41 41 43 46 46 47 47 48 50 51 53 60 59 58 60 63 65 67 73 75 71 67 73 88 90 98 98 115 155 126 79 31 340 344
167 81 326 355 355 359 344 352 10 19 24 24 30 32 36 40 40 40 42 45 44 44 45 47 50 51 56 59 59 59 61 63 68 69 70 69 68 70 74 71 63 57 70 81 58 26 325 322 317
202 209 249 321 333 332 332 334 353 10 18 23 26 24 31 39 41 41 38 39 39 41 42 44 47 49 50 57 57 60 62 65 66 68 67 63 64 64 65 67 68 58 62 70 63 37 26 348 323
210 224 252 260 268 277 285 304 322 358 10 17 20 20 32 33 31 34 32 33 35 38 36 41 46 47 46 50 53 54 54 57 60 67 67 62 64 67 67 68 66 53 56 56 48 37 16 5 352
214 221 237 237 246 257 262 280 300 329 352 0 8 11 22 25 23 27 28 30 33 32 36 41 43 45 45 45 49 54 55 56 57 61 61 60 61 60 59 57 52 52 45 38 32 21 8 1 352
217 222 233 242 240 239 246 266 283 296 326 337 347 357 6 19 16 23 27 28 29 30 32 33 38 39 39 40 42 45 51 51 48 48 50 48 46 46 49 47 43 37 26 20 24 16 8 0 349
218 224 231 239 242 234 234 257 270 284 305 302 314 338 350 7 12 19 23 23 25 27 25 27 31 31 32 33 37 39 42 42 40 36 34 32 32 33 29 31 36 26 17 13 13 9 3 355 347
220 224 231 236 235 231 231 248 264 276 291 297 310 315 337 354 7 18 13 11 16 21 20 19 24 25 27 28 32 33 33 30 27 27 26 20 17 17 15 13 15 11 8 4 5 2 355 346 343
222 225 230 236 238 234 236 245 256 257 276 290 296 301 311 335 350 1 354 356 359 3 9 12 14 17 20 23 26 25 21 18 19 21 15 12 3 359 354 352 351 356 1 1 355 346 343 339 337
220 225 230 238 242 241 243 250 247 250 259 275 285 295 308 313 318 330 333 334 339 346 354 359 1 1 6 8 11 11 10 9 9 8 6 5 357 352 348 348 349 347 347 351 351 346 341 339 335
221 224 228 235 240 241 245 253 255 256 256 262 274 285 296 295 290 296 304 308 314 323 331 338 341 341 345 351 353 353 355 355 354 354 352 353 355 354 353 350 344 338 338 342 342 339 336 335 333
223 224 229 233 238 242 247 250 255 263 266 264 270 276 281 276 276 283 289 297 299 301 310 318 323 324 327 332 338 336 335 339 340 340 342 346 345 343 344 342 339 335 334 336 336 335 331 330 329
226 227 228 231 235 241 247 252 253 260 259 264 268 269 271 272 273 274 276 282 288 290 292 298 303 307 313 316 321 326 324 323 327 331 334 337 336 337 335 336 332 328 330 332 334 333 328 325 326
Height
5895 5894 5893 5893 5892 5890 5888 5887 5886 5885 5884 5881 5880 5878 5877 5876 5876 5876 5873 5871 5870 5869 5869 5869 5869 5870 5870 5871 5871 5871 5871 5872 5873 5873 5874 5874 5874 5875 5875 5876 5876 5877 5877 5877 5877 5878 5878 5879 5880
5897 5896 5896 5895 5893 5891 5889 5888 5887 5886 5884 5882 5881 5880 5878 5877 5876 5874 5872 5871 5870 5870 5869 5869 5869 5870 5870 5871 5872 5872 5872 5872 5873 5873 5874 5875 5875 5876 5876 5876 5876 5877 5877 5877 5877 5877 5878 5879 5881
5899 5898 5898 5896 5893 5892 5891 5889 5888 5886 5885 5884 5882 5881 5879 5877 5876 5874 5873 5872 5871 5870 5869 5869 5870 5870 5871 5871 5872 5873 5873 5873 5873 5874 5874 5875 5876 5876 5876 5877 5877 5877 5877 5876 5876 5876 5877 5879 5881
5901 5901 5900 5897 5894 5893 5892 5890 5889 5888 5886 5885 5883 5882 5880 5878 5877 5875 5874 5873 5872 5871 5870 5870 5871 5871 5871 5872 5872 5873 5873 5874 5874 5875 5875 5875 5876 5876 5877 5877 5878 5878 5878 5877 5876 5874 5876 5878 5881
5904 5902 5900 5898 5896 5895 5893 5892 5891 5890 5888 5886 5885 5883 5881 5880 5878 5876 5875 5874 5873 5873 5872 5872 5872 5872 5872 5873 5873 5873 5874 5874 5875 5875 5875 5876 5877 5877 5877 5878 5878 5878 5878 5878 5877 5876 5877 5879 5881
5906 5903 5902 5900 5898 5897 5895 5894 5893 5892 5890 5888 5886 5885 5883 5881 5879 5878 5877 5876 5875 5875 5874 5873 5873 5873 5873 5873 5874 5874 5874 5875 5875 5876 5875 5876 5877 5878 5878 5878 5879 5879 5879 5879 5879 5879 5880 5881 5882
5907 5905 5903 5902 5901 5899 5898 5896 5895 5894 5892 5890 5888 5886 5884 5882 5881 5879 5878 5877 5877 5876 5876 5875 5875 5875 5874 5874 5874 5874 5875 5876 5876 5876 5876 5877 5877 5878 5878 5879 5879 5879 5880 5880 5880 5881 5881 5882 5883
5908 5907 5905 5904 5903 5902 5900 5899 5897 5895 5894 5892 5890 5888 5886 5884 5882 5880 5880 5879 5878 5878 5877 5877 5876 5876 5876 5875 5875 5875 5876 5876 5876 5877 5877 5877 5878 5878 5879 5879 5880 5880 5880 5881 5882 5882 5883 5883 5884
5909 5910 5907 5906 5905 5904 5902 5901 5900 5898 5896 5894 5891 5890 5888 5886 5884 5882 5882 5880 5880 5879 5879 5878 5877 5877 5877 5877 5877 5876 5876 5876 5877 5877 5878 5878 5879 5879 5879 5880 5880 5881 5881 5882 5882 5883 5883 5884 5884
5911 5910 5909 5908 5907 5906 5905 5903 5902 5900 5898 5896 5894 5892 5890 5888 5887 5885 5884 5883 5882 5881 5881 5880 5879 5879 5878 5878 5877 5877 5877 5877 5878 5878 5878 5879 5879 5880 5880 5880 5880 5881 5881 5882 5883 5883 5883 5884 5884
5912 5912 5911 5910 5909 5908 5907 5905 5903 5902 5900 5898 5896 5895 5893 5891 5889 5888 5887 5885 5885 5884 5883 5882 5881 5880 5879 5878 5878 5878 5877 5878 5879 5879 5879 5880 5880 5880 5881 5881 5881 5881 5882 5882 5883 5883 5883 5884 5884
5913 5913 5912 5912 5911 5910 5909 5907 5906 5904 5903 5901 5898 5897 5896 5894 5892 5891 5889 5888 5887 5886 5885 5884 5883 5882 5881 5880 5879 5879 5879 5879 5879 5880 5880 5880 5881 5881 5881 5881 5881 5881 5882 5882 5883 5883 5883 5883 5884
5914 5914 5914 5913 5913 5912 5911 5909 5908 5906 5905 5903 5901 5899 5898 5896 5895 5893 5892 5890 5889 5888 5887 5886 5885 5884 5883 5882 5881 5881 5880 5880 5880 5881 5881 5881 5882 5882 5882 5882 5882 5882 5882 5883 5883 5883 5883 5883 5884
5916 5915 5915 5914 5914 5913 5912 5911 5910 5908 5906 5905 5904 5902 5900 5899 5897 5896 5894 5892 5891 5890 5889 5888 5887 5886 5884 5883 5883 5882 5881 5881 5881 5881 5882 5882 5882 5882 5882 5882 5882 5883 5883 5883 5883 5883 5884 5884 5884
5917 5917 5917 5916 5915 5914 5914 5914 5911 5910 5909 5908 5906 5905 5903 5901 5900 5898 5896 5895 5893 5892 5891 5890 5888 5887 5886 5885 5884 5883 5883 5882 5882 5882 5883 5883 5883 5883 5883 5884 5884 5883 5883 5883 5883 5883 5883 5884 5884
5917 5918 5917 5917 5916 5915 5916 5915 5913 5912 5911 5910 5908 5907 5905 5903 5902 5900 5899 5897 5895 5894 5893 5891 5890 5889 5888 5887 5886 5885 5884 5883 5883 5883 5883 5883 5884 5884 5884 5884 5884 5883 5883 5884 5884 5884 5883 5883 5883
5917 5917 5917 5918 5917 5916 5916 5916 5915 5913 5912 5912 5910 5908 5907 5906 5904 5903 5901 5899 5898 5896 5895 5893 5892 5890 5889 5888 5887 5886 5885 5885 5884 5884 5884 5884 5885 5885 5885 5884 5884 5884 5884 5884 5884 5883 5883 5883 5883
5917 5917 5917 5918 5917 5917 5917 5917 5916 5915 5914 5913 5912 5910 5909 5908 5906 5904 5903 5901 5900 5898 5897 5895 5893 5892 5891 5890 5889 5888 5887 5886 5886 5886 5885 5885 5885 5885 5885 5885 5884 5884 5884 5883 5883 5883 5883 5883 5883
5916 5917 5918 5918 5917 5917 5917 5917 5917 5916 5915 5914 5914 5912 5910 5909 5908 5906 5905 5903 5902 5900 5899 5897 5895 5894 5893 5892 5891 5890 5889 5888 5888 5887 5887 5886 5886 5886 5885 5885 5884 5884 5884 5884 5883 5883 5883 5882 5882
5915 5916 5917 5918 5917 5917 5917 5916 5916 5916 5915 5915 5914 5913 5912 5910 5909 5908 5906 5905 5904 5902 5901 5899 5897 5896 5894 5893 5892 5891 5890 5890 5890 5889 5888 5887 5887 5886 5886 5886 5885 5884 5884 5884 5884 5883 5883 5882 5881
5912 5915 5916 5917 5917 5916 5916 5916 5915 5915 5915 5915 5915 5914 5913 5911 5910 5909 5908 5906 5905 5904 5902 5901 5899 5898 5896 5895 5894 5893 5892 5891 5891 5890 5889 5889 5888 5887 5887 5886 5886 5885 5885 5884 5884 5883 5883 5882 5881
5911 5913 5914 5915 5915 5915 5916 5915 5915 5914 5914 5914 5914 5914 5913 5912 5911 5910 5908 5907 5906 5905 5903 5902 5901 5899 5898 5897 5895 5895 5894 5893 5892 5891 5890 5889 5888 5888 5887 5887 5886 5885 5885 5884 5884 5883 5882 5881 5880
5909 5911 5912 5913 5913 5914 5914 5914 5914 5913 5914 5914 5914 5914 5913 5912 5911 5910 5909 5908 5907 5905 5904 5903 5902 5901 5899 5898 5897 5896 5895 5894 5893 5892 5891 5890 5889 5889 5888 5887 5886 5886 5885 5884 5883 5883 5882 5881 5880
5906 5908 5909 5910 5911 5911 5912 5912 5912 5912 5913 5913 5913 5913 5913 5912 5911 5910 5910 5908 5907 5907 5905 5904 5903 5902 5900 5899 5898 5897 5895 5895 5893 5892 5891 5891 5890 5889 5888 5887 5886 5886 5885 5884 5883 5882 5881 5880 5878
5902 5904 5906 5906 5907 5908 5910 5909 5911 5911 5911 5911 5912 5912 5912 5911 5911 5910 5910 5909 5908 5907 5906 5905 5904 5903 5901 5900 5898 5897 5896 5895 5894 5893 5892 5891 5890 5889 5888 5887 5886 5885 5884 5883 5882 5881 5880 5879 5878
5898 5901 5902 5903 5904 5906 5906 5906 5908 5908 5908 5909 5909 5910 5910 5910 5910 5909 5909 5909 5908 5907 5906 5905 5904 5903 5902 5900 5899 5897 5896 5895 5894 5893 5892 5891 5890 5888 5887 5887 5886 5885 5884 5882 5881 5880 5879 5878 5876
5894 5896 5899 5901 5901 5902 5902 5903 5904 5905 5906 5906 5907 5908 5908 5908 5908 5908 5908 5908 5907 5907 5906 5905 5904 5903 5901 5900 5899 5897 5896 5895 5894 5893 5892 5891 5889 5888 5887 5886 5885 5884 5883 5882 5880 5880 5878 5877 5875
5889 5892 5894 5895 5896 5897 5899 5899 5901 5902 5903 5904 5904 5905 5905 5906 5906 5906 5906 5906 5906 5905 5905 5904 5903 5902 5901 5899 5898 5896 5895 5894 5893 5892 5891 5890 5889 5888 5886 5885 5884 5883 5882 5881 5880 5878 5877 5875 5874
5884 5887 5889 5891 5892 5894 5894 5898 5898 5899 5900 5900 5901 5901 5903 5904 5904 5904 5904 5904 5904 5904 5903 5902 5901 5900 5900 5898 5897 5896 5894 5893 5892 5891 5890 5889 5888 5887 5886 5885 5883 5882 5881 5879 5878 5877 5875 5874 5872
5879 5881 5884 5886 5887 5889 5890 5894 5894 5895 5896 5897 5898 5898 5899 5901 5901 5901 5901 5901 5901 5901 5901 5901 5900 5899 5898 5897 5896 5894 5893 5892 5891 5890 5889 5887 5886 5885 5884 5883 5882 5881 5879 5878 5877 5875 5873 5872 5870